Satellite: PO-34
Catalog number: 25520
Epoch time:      08227.87159563
Element set:      58
Inclination:      028.4586 deg
RA of node:       145.8859 deg
Eccentricity:    0.0005604
Arg of perigee:   203.7885 deg
Mean anomaly:     156.2447 deg
Mean motion:   15.17217913 rev/day
Decay rate:       3.23e-06 rev/day^2
Epoch rev:           54208
Checksum:              321

Satellite: ISS
Catalog number: 25544
Epoch time:      08227.51110226
Element set:      55
Inclination:      051.6448 deg
RA of node:       076.8280 deg
Eccentricity:    0.0008059
Arg of perigee:   018.2040 deg
Mean anomaly:     075.2824 deg
Mean motion:   15.70962716 rev/day
Decay rate:     1.1863e-04 rev/day^2
Epoch rev:           55771
Checksum:              286

Satellite: CO-58
Catalog number: 28895
Epoch time:      08226.90702466
Element set:    0096
Inclination:      098.0930 deg
RA of node:       119.5328 deg
Eccentricity:    0.0016764
Arg of perigee:   227.0868 deg
Mean anomaly:     132.8934 deg
Mean motion:   14.59689284 rev/day
Decay rate:       1.73e-06 rev/day^2
Epoch rev:           14890
Checksum:              356

Satellite: NCUBE2
Catalog number: 28897
Epoch time:      08226.65916135
Element set:    0626
Inclination:      098.0881 deg
RA of node:       119.2160 deg
Eccentricity:    0.0016220
Arg of perigee:   229.6863 deg
Mean anomaly:     130.2923 deg
Mean motion:   14.59860691 rev/day
Decay rate:        5.2e-07 rev/day^2
Epoch rev:           14115
Checksum:              303

Satellite: FALCON
Catalog number: 30776
Epoch time:      08227.89709120
Element set:     375
Inclination:      035.4329 deg
RA of node:       157.4195 deg
Eccentricity:    0.0000335
Arg of perigee:   193.1661 deg
Mean anomaly:     166.9047 deg
Mean motion:   15.03033335 rev/day
Decay rate:       2.55e-06 rev/day^2
Epoch rev:            7898
Checksum:              301

Satellite: MAST
Catalog number: 31126
Epoch time:      08227.75822458
Element set:     398
Inclination:      098.0342 deg
RA of node:       289.8404 deg
Eccentricity:    0.0095663
Arg of perigee:   149.8789 deg
Mean anomaly:     210.7942 deg
Mean motion:   14.53439575 rev/day
Decay rate:       -2.0e-08 rev/day^2
Epoch rev:            7052
Checksum:              328

Satellite: CAPE1
Catalog number: 31130
Epoch time:      08226.94079526
Element set:    0392
Inclination:      098.0349 deg
RA of node:       287.9347 deg
Eccentricity:    0.0104223
Arg of perigee:   155.5204 deg
Mean anomaly:     205.0988 deg
Mean motion:   14.51984357 rev/day
Decay rate:       -5.0e-08 rev/day^2
Epoch rev:           07010
Checksum:              294

Satellite: CUTE1-7
Catalog number: 32785
Epoch time:      08227.20889243
Element set:     129
Inclination:      097.9890 deg
RA of node:       286.9761 deg
Eccentricity:    0.0014357
Arg of perigee:   312.2338 deg
Mean anomaly:     047.7652 deg
Mean motion:   14.81383393 rev/day
Decay rate:       2.42e-06 rev/day^2
Epoch rev:            1599
Checksum:              339

Satellite: COMPASS
Catalog number: 32787
Epoch time:      08227.20494650
Element set:     119
Inclination:      097.9841 deg
RA of node:       286.9205 deg
Eccentricity:    0.0015244
Arg of perigee:   313.2211 deg
Mean anomaly:     046.7724 deg
Mean motion:   14.81445934 rev/day
Decay rate:       2.64e-06 rev/day^2
Epoch rev:            1599
Checksum:              304

Satellite: AAUSAT2
Catalog number: 32788
Epoch time:      08227.87241271
Element set:     120
Inclination:      097.9850 deg
RA of node:       287.6002 deg
Eccentricity:    0.0014274
Arg of perigee:   313.4718 deg
Mean anomaly:     046.5350 deg
Mean motion:   14.81555440 rev/day
Decay rate:       2.01e-06 rev/day^2
Epoch rev:            1609
Checksum:              280

Satellite: DO-64
Catalog number: 32789
Epoch time:      08227.88133915
Element set:     129
Inclination:      097.9878 deg
RA of node:       287.6333 deg
Eccentricity:    0.0014887
Arg of perigee:   309.9954 deg
Mean anomaly:     049.9948 deg
Mean motion:   14.81449601 rev/day
Decay rate:       4.59e-06 rev/day^2
Epoch rev:            1609
Checksum:              380

Satellite: SEEDS
Catalog number: 32791
Epoch time:      08227.89069015
Element set:     116
Inclination:      097.9869 deg
RA of node:       287.6183 deg
Eccentricity:    0.0015368
Arg of perigee:   308.1204 deg
Mean anomaly:     051.8618 deg
Mean motion:   14.81302254 rev/day
Decay rate:       1.33e-06 rev/day^2
Epoch rev:            1606
Checksum:              299

Satellite: CANX-2
Catalog number: 32797
Epoch time:      08226.10209254
Element set:    0063
Inclination:      097.9942 deg
RA of node:       285.9583 deg
Eccentricity:    0.0015611
Arg of perigee:   319.8527 deg
Mean anomaly:     040.1563 deg
Mean motion:   14.81933659 rev/day
Decay rate:      1.673e-05 rev/day^2
Epoch rev:           01451
Checksum:              314

